Location: ????????
(56.1167°N, 38.6333°E)
Time: 21:54:21
(UTC+00:00)

Meteor 2-1 Rocket - Pass Details

Date: 18 November 2025
Orbit: 822 x 911 km, 81.3° (Epoch: 06 December)

Event Time Altitude Azimuth Distance (km) Brightness Sun altitude
Rises 16:03:08 0° 182° (S) 3,515 7.5 -23.3°
Reaches altitude 10° 16:05:35 10° 180° (S) 2,586 6.7 -23.6°
Maximum altitude 16:11:27 67° 99° (E) 986 4.2 -24.4°
Enters shadow 16:15:03 25° 23° (NNE) 1,774 5.7 -24.9°
Exits shadow 16:18:53 - 17° (NNE) 3,181 7.1 -25.4°
Sets 16:19:52 0° 16° (NNE) 3,554 7.3 -25.6°
